College Station, AR

8:07 PM CDT on September 24, 2016 (GMT -0500)
Adams

Weather History for KLIT - August, 2013

Change the Weather History Date:

Saturday, August 24, 2013

  Actual Average Record
Temperature  
Mean Temperature 84 °F 82 °F  
Max Temperature 93 °F 92 °F 105 °F (1983)
Min Temperature 74 °F 72 °F 52 °F (1891)
Degree Days  
Heating Degree Days 0 0  
Month to date heating degree days 0 0  
Since 1 June heating degree days 0 0  
Since 1 July heating degree days 0 0  
Cooling Degree Days 19 17  
Month to date cooling degree days 376 427  
Year to date cooling degree days 1573 1686  
Since 1 June cooling degree days 1312 1405  
Growing Degree Days 33 (Base 50)    
Moisture  
Dew Point 72 °F    
Average Humidity 70    
Maximum Humidity 93    
Minimum Humidity 46    
Precipitation  
Precipitation 0.00 in 0.09 in 2.09 in (1950)
Month to date precipitation 3.56 1.97  
Year to date precipitation 34.60 30.79  
Snow  
Snow 0.00 in 0.00 in - ()
Month to date snowfall 0.0 0.0  
Since 1 June snowfall 0.0 0.0  
Since 1 July snowfall 0.0 0.0  
Snow Depth 0.00 in    
Sea Level Pressure  
Sea Level Pressure 30.09 in    
Wind  
Wind Speed 5 mph (ENE)    
Max Wind Speed 14 mph    
Max Gust Speed 18 mph    
Visibility 9 miles    
Events      
T = Trace of Precipitation, MM = Missing Value Source: NWS Daily Summary

Daily Weather History Graph

Daily Weather History Graph

Search for Another Location

Airport or City:

Trip Planner

Search our weather history database for the weather conditions in past years. The results will help you decide how hot, cold, wet, or windy it might be!

Date:

Astronomy

Aug. 24, 2013 Rise Set
Actual Time 6:36 AM CDT 7:45 PM CDT
Civil Twilight 6:10 AM CDT 8:11 PM CDT
Nautical Twilight 5:38 AM CDT 8:42 PM CDT
Astronomical Twilight 5:06 AM CDT 9:14 PM CDT
Moon 9:53 PM CDT (8/24) 10:24 AM CDT (8/24)
Length of Visible Light 14h 01m
Length of Day
13h 09m
Waning Gibbous, 84% of the Moon is Illuminated
Aug 24
Waning Gibbous
Aug 28
Last Quarter
Sep 5
New
Sep 12
First Quarter
Sep 19
Full

Hourly Weather History & Observations

Time (CDT) Temp. Heat Index Dew Point Humidity Pressure Visibility Wind Dir Wind Speed Gust Speed Precip Events Conditions
12:53 AM 79.0 °F - 71.1 °F 77% 30.04 in 10.0 mi Calm Calm - N/A   Clear
1:53 AM 78.1 °F - 71.1 °F 79% 30.05 in 10.0 mi Calm Calm - N/A   Partly Cloudy
2:53 AM 77.0 °F - 71.1 °F 82% 30.06 in 10.0 mi Calm Calm - N/A   Scattered Clouds
3:53 AM 75.9 °F - 71.1 °F 85% 30.06 in 10.0 mi NNE 3.5 mph - N/A   Partly Cloudy
4:53 AM 75.0 °F - 71.1 °F 87% 30.06 in 7.0 mi Calm Calm - N/A   Clear
5:53 AM 75.0 °F - 71.1 °F 87% 30.07 in 7.0 mi NE 3.5 mph - N/A   Partly Cloudy
6:53 AM 73.9 °F - 71.1 °F 91% 30.09 in 5.0 mi NE 4.6 mph - N/A   Clear
7:53 AM 77.0 °F - 72.0 °F 84% 30.12 in 6.0 mi NE 4.6 mph - N/A   Clear
8:53 AM 80.1 °F 84.2 °F 73.0 °F 79% 30.13 in 6.0 mi ENE 3.5 mph - N/A   Clear
9:53 AM 82.9 °F 89.4 °F 73.9 °F 74% 30.13 in 10.0 mi ENE 5.8 mph - N/A   Clear
10:53 AM 86.0 °F 93.0 °F 73.0 °F 65% 30.13 in 10.0 mi East 3.5 mph - N/A   Clear
11:53 AM 89.1 °F 97.0 °F 73.0 °F 59% 30.13 in 10.0 mi ESE 4.6 mph - N/A   Partly Cloudy
12:53 PM 90.0 °F 96.9 °F 72.0 °F 55% 30.12 in 10.0 mi Calm Calm - N/A   Mostly Cloudy
1:53 PM 91.0 °F 97.6 °F 71.1 °F 52% 30.11 in 10.0 mi SE 6.9 mph - N/A   Scattered Clouds
2:53 PM 93.0 °F 99.0 °F 70.0 °F 47% 30.09 in 10.0 mi East 11.5 mph - N/A   Scattered Clouds
3:53 PM 93.0 °F 97.9 °F 69.1 °F 45% 30.07 in 10.0 mi East 8.1 mph - N/A   Scattered Clouds
4:53 PM 93.0 °F 97.9 °F 69.1 °F 45% 30.07 in 10.0 mi East 9.2 mph - N/A   Scattered Clouds
5:53 PM 89.1 °F 95.0 °F 71.1 °F 55% 30.06 in 10.0 mi ESE 9.2 mph - N/A   Scattered Clouds
6:53 PM 89.1 °F 95.0 °F 71.1 °F 55% 30.07 in 10.0 mi East 9.2 mph - N/A   Scattered Clouds
7:53 PM 84.9 °F 90.7 °F 72.0 °F 65% 30.08 in 10.0 mi ENE 6.9 mph - N/A   Scattered Clouds
8:53 PM 82.9 °F 88.8 °F 73.0 °F 72% 30.09 in 10.0 mi ENE 6.9 mph - N/A   Partly Cloudy
9:53 PM 82.0 °F 87.4 °F 73.0 °F 74% 30.12 in 10.0 mi NE 4.6 mph - N/A   Partly Cloudy
10:53 PM 80.1 °F 84.2 °F 73.0 °F 79% 30.12 in 7.0 mi NE 4.6 mph - N/A   Scattered Clouds
11:53 PM 79.0 °F - 73.0 °F 82% 30.12 in 10.0 mi NE 3.5 mph - N/A   Partly Cloudy